Kindersley Airport
CYKY : now visible

Airfield :











YOU CAN JOIN US ON...

 
LOGIN :

Register | Disclaimer

   EN    FR    IT 

 









Legend :    VFR   Marginal VFR   IFR   Intensive IFR   Very Intensive IFR
Visi :
Ceiling :
>= 8 km
>= 3000ft
5 to 8 km
1000 to 3000 ft
1500m to 5 km
500 to 1000 ft
800 to 1500m
200 to 500 ft
< 800m
< 200 ft
Symbols :   Thunderstorms  Fog  Heavy snow  Heavy precipitations  Wind > 20 kt






- Airport Elevation : 2277 ft
- IATA code : YKY


CYKY - Kindersley

CURRENT METAR :
  • 130300Z 35008G17KT 320V020 15SM FEW045 SCT065 BKN140 12/11 A2972 RMK SC2SC2AC3 SLP069 DENSITY ALT 2800FT

EXPIRED METARs :
  • 130236Z 34011G17KT 310V020 15SM SCT040 BKN065 13/12 A2973 RMK SC4SC2 DIST PCPN W PRESFR SLP072 DENSITY ALT 2800FT
  • 130220Z 30014KT 8SM -SHRA OVC045 13/12 A2979 RMK SC8 CVCTV CLD EMBD SLP093 DENSITY ALT 2700FT
  • 130200Z 30019G26KT 4SM SHRA OVC040 13/12 A2979 RMK SC8 CVCTV CLD EMBD SLP093 DENSITY ALT 2700FT
  • 130153Z 30019G24KT 4SM SHRA OVC040 13/12 A2979 RMK SC8 CVCTV CLD EMBD SLP092 DENSITY ALT 2800FT

TAF N/A
CZWG FIR / North America



MET'MAP, your aeronautical weather chart ! - Copyright ORBIFLY December 2007 - Disclaimer

ORBIFLY MET'MAP TEAM :

Programming & Development : Alexandra Zaïnal
Concept & original design : Baudouin d'Aumeries
Assistance for programming : Marc-Olivier Méhu
Technical & hardware support : Manuel Goepfert

Contact : metmap@orbifly.com




SOURCES & CREDITS :

   NOAA       Earth
Advisory